Voltar ao catálogo

COSMOS 2330

AtivoMilitarPO
NORAD 23792·PAYLOAD·🇷🇺 Russia

Lançado Feb 19, 1996 de Plesetsk Cosmodrome

Loading…

Próximas Passagens (próximas 24 horas)

TLE

AtualizadoSource: Space-Track

Época: Sep 14, 2026, 13:20 UTC

1 23792U 96009F   26257.55615933  .00000024  00000-0  75280-4 0  9998
2 23792  82.5773 287.0465 0010584 232.4323 127.5807 12.60979322406906

Acompanhe COSMOS 2330 em tempo real com AllMySat

Download on the App Store